When you browse on this site, cookies collect data to enhance your experience and personalize the content and advertising you see.
Visit our Privacy Policy to learn more. By continuing to use the site, you agree to this use of cookies and data.
  • In Sweden
  • List of Countries
  • For 7 days
  • Water Temperature
  • Satellite Maps
  • Weather Map
  • Weather Widgets
  • user-avatar
    Login

    Hourly Weather Amreli

    Today, 11 December, Tuesday

    Time Temperature Precipitation Wind Pressure Humidity
    00:00 +25°C° 0 mm 2 mps 749 mmHg 60%
    01:00 +25°C° 0 mm 2 mps 748 mmHg 62%
    02:00 +24°C° 0 mm 2 mps 748 mmHg 65%
    03:00 +24°C° 0 mm 2 mps 748 mmHg 66%
    04:00 +24°C° 0 mm 2 mps 748 mmHg 67%
    05:00 +24°C° 0 mm 3 mps 748 mmHg 73%
    06:00 +24°C° 0 mm 2 mps 749 mmHg 71%
    07:00 +25°C° 0 mm 2 mps 749 mmHg 69%
    08:00 +25°C° 0 mm 2 mps 750 mmHg 67%
    09:00 +27°C° 0 mm 2 mps 750 mmHg 59%
    10:00 +28°C° 0 mm 2 mps 750 mmHg 51%
    11:00 +30°C° 0 mm 2 mps 750 mmHg 43%
    12:00 +30°C° 0 mm 1 mps 750 mmHg 41%
    13:00 +30°C° 0 mm 1 mps 749 mmHg 40%
    14:00 +30°C° 0 mm 1 mps 749 mmHg 38%
    15:00 +30°C° 0 mm 1 mps 748 mmHg 39%
    16:00 +30°C° 0 mm 2 mps 748 mmHg 40%
    17:00 +30°C° 0 mm 2 mps 748 mmHg 41%
    18:00 +29°C° 0 mm 2 mps 748 mmHg 45%
    19:00 +28°C° 0 mm 2 mps 748 mmHg 48%
    20:00 +27°C° 0 mm 3 mps 748 mmHg 52%
    21:00 +26°C° 0 mm 2 mps 749 mmHg 55%
    22:00 +26°C° 0 mm 2 mps 749 mmHg 59%
    23:00 +25°C° 0 mm 2 mps 749 mmHg 62%

    Tomorrow, 12 December, Wednesday

    Time Temperature Precipitation Wind Pressure Humidity
    00:00 +25°C° 0 mm 2 mps 749 mmHg 62%
    01:00 +25°C° 0 mm 2 mps 748 mmHg 62%
    02:00 +24°C° 0 mm 2 mps 748 mmHg 62%
    03:00 +24°C° 0 mm 2 mps 748 mmHg 63%
    04:00 +24°C° 0 mm 2 mps 748 mmHg 64%
    05:00 +23°C° 0 mm 2 mps 749 mmHg 65%
    06:00 +24°C° 0 mm 2 mps 749 mmHg 63%
    07:00 +24°C° 0 mm 2 mps 749 mmHg 61%
    08:00 +25°C° 0 mm 2 mps 750 mmHg 59%
    09:00 +26°C° 0 mm 2 mps 750 mmHg 53%
    10:00 +28°C° 0 mm 3 mps 750 mmHg 46%
    11:00 +29°C° 0 mm 3 mps 751 mmHg 39%
    12:00 +30°C° 0 mm 2 mps 750 mmHg 38%
    13:00 +30°C° 0 mm 2 mps 749 mmHg 36%
    14:00 +30°C° 0 mm 2 mps 749 mmHg 35%
    15:00 +30°C° 0 mm 2 mps 749 mmHg 34%
    16:00 +30°C° 0 mm 2 mps 749 mmHg 33%
    17:00 +30°C° 0 mm 2 mps 749 mmHg 33%
    18:00 +29°C° 0 mm 3 mps 749 mmHg 34%
    19:00 +28°C° 0 mm 3 mps 749 mmHg 35%
    20:00 +27°C° 0 mm 3 mps 750 mmHg 36%
    21:00 +26°C° 0 mm 4 mps 750 mmHg 36%
    22:00 +26°C° 0 mm 4 mps 750 mmHg 37%
    23:00 +25°C° 0 mm 5 mps 750 mmHg 37%

    Day after tomorrow, 13 December, Thursday

    Time Temperature Precipitation Wind Pressure Humidity
    00:00 +25°C° 0 mm 5 mps 750 mmHg 36%
    01:00 +23°C° 0 mm 5 mps 750 mmHg 34%
    02:00 +23°C° 0 mm 5 mps 750 mmHg 33%
    03:00 +22°C° 0 mm 5 mps 750 mmHg 32%
    04:00 +22°C° 0 mm 5 mps 750 mmHg 31%
    05:00 +21°C° 0 mm 4 mps 750 mmHg 30%
    06:00 +21°C° 0 mm 5 mps 751 mmHg 30%
    07:00 +22°C° 0 mm 5 mps 752 mmHg 29%
    08:00 +22°C° 0 mm 5 mps 752 mmHg 29%
    09:00 +24°C° 0 mm 6 mps 752 mmHg 26%
    10:00 +26°C° 0 mm 6 mps 753 mmHg 22%
    11:00 +28°C° 0 mm 7 mps 753 mmHg 19%
    12:00 +29°C° 0 mm 6 mps 752 mmHg 18%
    13:00 +30°C° 0 mm 6 mps 751 mmHg 17%
    14:00 +30°C° 0 mm 6 mps 751 mmHg 15%
    15:00 +29°C° 0 mm 6 mps 750 mmHg 16%
    16:00 +29°C° 0 mm 5 mps 750 mmHg 17%
    17:00 +28°C° 0 mm 5 mps 750 mmHg 17%
    18:00 +27°C° 0 mm 5 mps 750 mmHg 19%
    19:00 +26°C° 0 mm 5 mps 751 mmHg 21%
    20:00 +23°C° 0 mm 5 mps 751 mmHg 23%
    21:00 +23°C° 0 mm 5 mps 751 mmHg 25%
    22:00 +22°C° 0 mm 5 mps 751 mmHg 27%
    23:00 +22°C° 0 mm 6 mps 751 mmHg 28%

    14 December, Friday

    Time Temperature Precipitation Wind Pressure Humidity
    00:00 +21°C° 0 mm 6 mps 751 mmHg 29%
    01:00 +21°C° 0 mm 6 mps 751 mmHg 29%
    02:00 +20°C° 0 mm 6 mps 751 mmHg 30%
    03:00 +20°C° 0 mm 5 mps 751 mmHg 31%
    04:00 +20°C° 0 mm 5 mps 750 mmHg 32%
    05:00 +19°C° 0 mm 5 mps 750 mmHg 33%
    06:00 +20°C° 0 mm 6 mps 751 mmHg 34%
    07:00 +20°C° 0 mm 6 mps 751 mmHg 35%
    08:00 +21°C° 0 mm 7 mps 752 mmHg 36%
    09:00 +23°C° 0 mm 7 mps 752 mmHg 34%
    10:00 +26°C° 0 mm 7 mps 752 mmHg 31%
    11:00 +28°C° 0 mm 7 mps 752 mmHg 29%
    12:00 +29°C° 0 mm 7 mps 752 mmHg 27%
    13:00 +30°C° 0 mm 6 mps 751 mmHg 25%
    14:00 +32°C° 0 mm 6 mps 750 mmHg 23%
    15:00 +30°C° 0 mm 6 mps 750 mmHg 24%
    16:00 +30°C° 0 mm 6 mps 750 mmHg 24%
    17:00 +29°C° 0 mm 5 mps 750 mmHg 25%
    18:00 +28°C° 0 mm 5 mps 750 mmHg 26%
    19:00 +27°C° 0 mm 5 mps 751 mmHg 28%
    20:00 +26°C° 0 mm 4 mps 751 mmHg 30%
    21:00 +25°C° 0 mm 5 mps 751 mmHg 32%
    22:00 +25°C° 0 mm 5 mps 751 mmHg 33%
    23:00 +23°C° 0 mm 5 mps 751 mmHg 35%

    15 December, Saturday

    Time Temperature Precipitation Wind Pressure Humidity
    00:00 +23°C° 0 mm 6 mps 751 mmHg 35%
    01:00 +22°C° 0 mm 6 mps 750 mmHg 36%
    02:00 +22°C° 0 mm 6 mps 750 mmHg 37%
    03:00 +22°C° 0 mm 6 mps 750 mmHg 38%
    04:00 +21°C° 0 mm 6 mps 750 mmHg 39%
    05:00 +21°C° 0 mm 6 mps 750 mmHg 40%
    06:00 +21°C° 0 mm 6 mps 750 mmHg 39%
    07:00 +21°C° 0 mm 7 mps 751 mmHg 38%
    08:00 +22°C° 0 mm 7 mps 751 mmHg 37%
    09:00 +23°C° 0 mm 7 mps 752 mmHg 34%
    10:00 +26°C° 0 mm 7 mps 752 mmHg 30%
    11:00 +28°C° 0 mm 7 mps 752 mmHg 27%
    12:00 +29°C° 0 mm 7 mps 752 mmHg 25%
    13:00 +30°C° 0 mm 7 mps 751 mmHg 23%
    14:00 +30°C° 0 mm 6 mps 750 mmHg 21%
    15:00 +30°C° 0 mm 6 mps 750 mmHg 22%
    16:00 +29°C° 0 mm 6 mps 750 mmHg 22%
    17:00 +29°C° 0 mm 5 mps 750 mmHg 22%
    18:00 +28°C° 0 mm 5 mps 750 mmHg 23%
    19:00 +27°C° 0 mm 5 mps 751 mmHg 25%
    20:00 +26°C° 0 mm 4 mps 751 mmHg 26%
    21:00 +25°C° 0 mm 4 mps 751 mmHg 26%
    22:00 +25°C° 0 mm 5 mps 751 mmHg 27%
    23:00 +23°C° 0 mm 5 mps 751 mmHg 28%

    16 December, Sunday

    Time Temperature Precipitation Wind Pressure Humidity
    00:00 +23°C° 0 mm 5 mps 751 mmHg 28%
    01:00 +22°C° 0 mm 5 mps 751 mmHg 28%
    02:00 +21°C° 0 mm 5 mps 750 mmHg 29%
    03:00 +21°C° 0 mm 5 mps 751 mmHg 30%
    04:00 +20°C° 0 mm 5 mps 751 mmHg 31%
    05:00 +20°C° 0 mm 5 mps 751 mmHg 32%
    06:00 +20°C° 0 mm 5 mps 751 mmHg 33%
    07:00 +21°C° 0 mm 6 mps 752 mmHg 34%
    08:00 +21°C° 0 mm 6 mps 752 mmHg 35%
    09:00 +23°C° 0 mm 6 mps 753 mmHg 33%
    10:00 +26°C° 0 mm 6 mps 753 mmHg 31%
    11:00 +28°C° 0 mm 6 mps 753 mmHg 28%
    12:00 +29°C° 0 mm 6 mps 752 mmHg 27%
    13:00 +30°C° 0 mm 6 mps 751 mmHg 26%
    14:00 +30°C° 0 mm 5 mps 750 mmHg 24%
    15:00 +30°C° 0 mm 5 mps 750 mmHg 25%
    16:00 +29°C° 0 mm 4 mps 750 mmHg 26%
    17:00 +29°C° 0 mm 4 mps 750 mmHg 26%
    18:00 +28°C° 0 mm 4 mps 750 mmHg 27%
    19:00 +28°C° 0 mm 4 mps 751 mmHg 28%
    20:00 +27°C° 0 mm 4 mps 751 mmHg 28%
    21:00 +27°C° 0 mm 4 mps 751 mmHg 28%
    22:00 +27°C° 0 mm 5 mps 751 mmHg 27%
    23:00 +26°C° 0 mm 5 mps 751 mmHg 26%
    Show more